User: anonymous   Login
Location: Invercargill
(46.4000°S, 168.3500°E)
Time: 10:51:05
(UTC+13:00)
Language:

Cosmos 1844 Rocket - Orbit

View from above orbital plane
View from above orbital plane
View from above satellite
View from above satellite

Ground track
Ground track

The orbit data is extracted from the following two-line orbital elements,

1 17974U 87041B   19315.38089358  .00000189  00000-0  11712-3 0  9994
2 17974  71.0087 221.6550 0012456 141.3809 337.1171 14.17256510680962
Epoch (UTC): 11 November 2019 09:08:29
Eccentricity: 0.0012456
inclination: 71.0087°
perigee height: 825 km
apogee height: 843 km
right ascension of ascending node: 221.6550°
argument of perigee: 141.3809°
revolutions per day: 14.17256510
mean anomaly at epoch: 337.1171°
orbit number at epoch: 68096

The dashed part of the orbit path shows where the satellite is in the earth's shadow,  

DLR